Location: Eaton Estates
(41.3089°N, 82.0057°W)
Time: 16:16:15
(UTC+00:00)

SJ 16-02 - Pass Details

Date: 17 June 2021
Orbit: 606 x 616 km, 75.0° (Epoch: 02 August)

Event Time Altitude Azimuth Distance (km) Brightness Sun altitude
Rises 04:40:51 0° 1° (N) 2,873 6.1 -24.3°
Reaches altitude 10° 04:44:23 10° 31° (NNE) 1,962 4.5 -24.5°
Maximum altitude 04:46:17 13° 57° (ENE) 1,797 4.0 -24.6°
Enters shadow 04:47:59 10° 80° (E) 1,927 3.9 -24.6°
